Content
SEND FEEDBACK

Daily
Averages
Monthly
Summary
Canada

RADISSON, QUEBEC


Home > North America > Canada > Quebec
Elevation: 640 feet     Latitude: 53 37N     Longitude: 077 42W

WEATHER
 
SELECT A DAY
Number of Records: 186,519;   Date Range: 1/1/95 - 11/25/14
 
SHARE

PRINT THIS DATA

[ ← Previous Day ]
WEATHER ALMANAC - FEBRUARY 13, 2013
[ Next Day → ]
[ °C ]   °F
Weather ElementAverageHighLow
Temperature4 °F15.8 °F (2:00 pm)-13 °F (7:00 am)
Dewpoint-0.7 °F12.2 °F (10:00 pm)-18.4 °F (7:00 am)
Humidity79.7 %93 % (11:00 pm)66 % (7:00 am)
Barometer29.61 in29.68 in (1:00 am)29.56 in (2:00 pm)
Wind Speed8.5 mph12.7 mph (8:00 am)
Wind Gust18.4 mph (2:00 pm)
Weather ElementAverage
Visibility11.4 mi
Wind DirectionSE (130.7 °)

Weather ElementTotal
Precipitation---
Heating Degree Days63.6 (Base 65)
Averaged from 30 records on February 13, 2013
WEATHER CONDITIONS BREAKOUT
WIND DIRECTION BREAKOUT
WEATHER BY HOUR - FEBRUARY 13, 2013
[ °C ]   °F
Local TimeTemperatureDewpointHumidityBarometerVisibilityWind DirectionWind SpeedGust SpeedPrecipitationEventsConditions
1:00 AM-3.0 °F-7.0 °F73 %29.68 in15.0 miSSW (200°)5.8 mphSnowLight Snow
1:00 AM-2.2 °F-7.6 °F78 %29.68 in15.0 miSouth (190°)5.8 mphSnowLight Snow
2:00 AM-4.0 °F-7.6 °F85 %29.67 in15.0 miSouth (180°)4.6 mphSnowLight Snow
3:00 AM-5.8 °F-11.2 °F77 %29.67 in15.0 miSE (140°)6.9 mphSnowLight Snow
4:00 AM-7.6 °F-13.0 °F77 %29.66 in15.0 miSE (130°)6.9 mphSnowLight Snow
4:48 AM-9.4 °F-14.8 °F77 %29.65 in15.0 miSE (130°)11.5 mphPartly Cloudy
5:00 AM-11.2 °F-16.6 °F77 %29.65 in15.0 miESE (120°)10.4 mphPartly Cloudy
6:00 AM-11.2 °F-16.6 °F77 %29.65 in15.0 miESE (120°)9.2 mphPartly Cloudy
7:00 AM-13.0 °F-18.0 °F66 %29.66 in15.0 miESE (110°)6.9 mphSnowLight Snow
7:00 AM-13.0 °F-18.4 °F77 %29.66 in15.0 miESE (120°)6.9 mphSnowLight Snow
8:00 AM-5.8 °F-11.2 °F77 %29.65 in15.0 miSSE (150°)12.7 mphSnowLight Snow
9:00 AM-2.2 °F-7.6 °F78 %29.64 in15.0 miSSE (150°)11.5 mphSnowLight Snow
10:00 AM-0.4 °F-5.8 °F78 %29.64 in15.0 miSE (130°)8.1 mphMostly Cloudy
11:00 AM3.2 °F-0.4 °F85 %29.62 in12.0 miESE (110°)9.2 mphSnowLight Snow
11:37 AM5.0 °F1.4 °F85 %29.61 in12.0 miESE (110°)8.1 mphSnowLight Snow
12:00 PM6.8 °F1.4 °F79 %29.60 in15.0 miEast (100°)6.9 mphMostly Cloudy
1:00 PM11.0 °F6.0 °F74 %29.58 in15.0 miEast (90°)6.9 mphPartly Cloudy
1:00 PM12.2 °F6.8 °F79 %29.58 in15.0 miEast (100°)8.1 mphMostly Cloudy
2:00 PM15.8 °F8.6 °F73 %29.56 in15.0 miSE (140°)11.5 mph18.4 mphMostly Cloudy
3:00 PM14.0 °F6.8 °F73 %29.57 in15.0 miEast (90°)6.9 mphMostly Cloudy
3:31 PM14.0 °F8.6 °F79 %29.56 in10.0 miESE (110°)10.4 mphSnowLight Snow
4:00 PM14.0 °F8.6 °F79 %29.57 in3.0 miESE (110°)10.4 mphSnowLight Snow
5:00 PM14.0 °F10.4 °F86 %29.57 in3.0 miSE (130°)10.4 mphSnowLight Snow
6:00 PM14.0 °F10.4 °F86 %29.58 in3.0 miSE (130°)10.4 mphSnowLight Snow
7:00 PM14.0 °F11.0 °F80 %29.58 in4.0 miSE (130°)10.4 mphSnowLight Snow
7:00 PM14.0 °F10.4 °F86 %29.58 in4.0 miSE (130°)9.2 mphSnowLight Snow
8:00 PM14.0 °F10.4 °F86 %29.58 in7.0 miSE (130°)8.1 mphSnowLight Snow
9:00 PM14.0 °F10.4 °F86 %29.57 in4.0 miSE (140°)6.9 mphSnowLight Snow
10:00 PM15.8 °F12.2 °F86 %29.56 in4.0 miSE (140°)8.1 mphSnowLight Snow
11:00 PM14.0 °F12.2 °F93 %29.57 in5.0 miSSE (160°)6.9 mphSnowLight Snow
Hourly data recorded from CYGL, located miles away from Radisson, Quebec







STORIES FROM OUR PARTNERS